Probability
0 0 0 0 0 0 0 0 0 0 0 0 0 0 0 0 0 0 0 0 0 0 0 0 0 0 0 0 0 0 0 0 0 3 3 0 0 0 0 0 0 0 0 0
0 0 0 0 0 0 0 0 0 0 0 0 0 0 0 0 0 0 0 0 0 0 0 0 3 0 0 0 0 0 0 0 0 0 3 3 0 0 0 0 0 0 0 0
0 0 0 0 0 0 0 0 0 0 0 0 0 0 0 0 0 0 0 0 0 0 0 0 0 0 0 0 0 0 0 0 0 0 0 0 0 0 0 0 0 0 0 0
0 0 0 0 0 0 0 0 0 0 0 0 0 0 0 0 0 0 0 0 0 0 0 0 0 0 0 0 0 0 0 0 0 0 0 0 0 0 0 0 0 0 0 0
0 0 0 0 0 0 0 0 0 0 0 0 0 0 0 0 0 0 0 0 0 0 0 0 0 0 0 0 0 0 0 0 0 0 0 0 0 0 0 0 0 0 0 0
0 0 0 0 0 0 0 0 0 0 0 0 0 0 0 0 0 0 0 0 0 0 0 0 0 0 0 0 0 0 0 0 0 0 0 0 0 0 0 0 0 0 0 0
0 0 0 0 0 0 0 0 0 0 0 0 0 0 0 0 0 0 0 0 0 0 0 0 0 0 0 0 0 0 0 0 0 0 0 0 0 0 0 0 0 0 0 0
0 0 0 0 0 0 0 0 0 0 0 0 0 0 0 0 0 0 0 0 0 0 0 0 0 0 0 0 0 0 0 0 0 0 0 0 0 0 0 0 0 0 0 0
0 0 0 0 0 0 0 0 0 0 0 0 0 0 0 0 0 0 0 0 0 0 0 0 0 0 0 0 0 0 0 0 0 0 0 0 0 0 0 0 0 0 0 0
0 0 0 0 0 0 0 0 0 0 0 0 0 0 0 0 0 0 0 0 0 0 0 0 0 0 0 0 0 0 0 0 0 0 0 0 0 0 0 0 0 0 0 0
0 0 0 0 0 0 0 0 0 0 0 0 0 0 0 0 0 0 0 0 0 0 0 0 0 0 0 0 0 0 0 0 0 0 0 0 0 0 0 0 0 0 0 0
0 0 0 0 0 0 0 0 0 0 0 0 0 0 0 0 0 0 0 0 0 0 0 0 0 0 0 0 0 0 0 0 0 0 0 0 0 0 0 0 0 0 0 0
0 0 0 0 0 0 0 0 0 0 0 0 0 0 0 0 0 0 0 0 0 0 0 0 0 0 0 0 0 0 0 0 0 0 0 0 0 0 0 0 0 0 0 0
0 0 0 0 0 0 0 0 0 0 0 0 0 0 0 0 0 0 0 0 0 0 0 0 0 0 0 0 0 0 0 0 0 0 0 0 0 0 0 0 0 0 0 0
0 0 0 0 0 0 0 0 0 0 0 0 0 0 0 0 0 0 0 0 0 0 0 0 0 0 0 0 0 0 0 0 0 0 0 0 0 0 0 0 0 0 0 0
0 0 0 0 0 0 0 0 0 0 0 0 0 0 0 0 0 0 0 0 0 0 0 0 0 0 0 0 0 0 0 0 0 0 0 0 0 0 0 0 0 0 0 0
0 0 0 0 0 0 0 0 0 0 0 0 0 0 0 0 0 0 0 0 0 0 0 0 0 0 0 0 0 0 0 0 0 0 0 0 0 0 0 0 0 0 0 0
0 0 0 0 0 0 0 0 0 0 0 0 0 0 0 0 0 0 0 0 0 0 0 0 0 0 0 0 0 0 0 0 0 0 0 0 0 0 0 0 0 0 0 0
0 0 0 0 0 0 0 0 0 0 0 0 0 0 0 0 0 0 0 0 0 0 0 0 0 0 0 0 0 0 0 0 0 0 0 0 0 0 0 0 0 0 0 0
0 0 0 0 0 0 0 0 0 0 0 0 0 0 0 0 0 0 0 0 0 0 0 0 0 0 0 0 0 0 0 0 0 0 0 0 0 0 0 0 0 0 0 0
0 0 0 0 0 0 0 0 0 0 0 0 0 0 0 0 0 0 0 0 0 0 0 0 0 0 0 0 0 0 0 0 0 0 0 0 0 0 0 0 0 0 0 0
0 0 0 0 0 0 0 0 0 0 0 0 0 0 0 0 0 0 0 0 0 0 0 0 0 0 0 0 0 0 0 0 0 0 0 0 0 0 0 0 0 0 0 0
0 0 0 0 0 0 0 0 0 0 0 0 0 0 0 0 0 0 0 0 0 0 0 0 0 0 0 0 0 0 0 0 0 0 0 0 0 0 0 0 0 0 0 0
0 0 0 0 0 0 0 0 0 0 0 0 0 0 0 0 0 0 0 0 0 0 0 0 0 0 0 0 0 0 0 0 0 0 0 0 0 0 0 0 0 0 0 0
0 0 0 0 0 0 0 0 0 0 0 0 0 0 0 0 0 0 0 0 0 0 0 0 0 0 0 0 0 0 0 0 0 0 0 0 0 0 0 0 0 0 0 0
0 0 0 0 0 0 0 0 0 0 0 0 0 0 0 0 0 0 0 0 0 0 0 0 0 0 0 0 0 0 0 0 0 0 0 0 0 0 0 0 0 0 0 0
Height
5753 5750 5747 5745 5742 5740 5737 5735 5732 5729 5726 5724 5721 5720 5719 5717 5716 5716 5716 5715 5714 5714 5713 5713 5713 5713 5713 5713 5713 5714 5714 5714 5715 5715 5716 5717 5718 5719 5721 5723 5725 5727 5729 5732
5747 5743 5740 5737 5734 5731 5728 5726 5723 5720 5717 5714 5711 5710 5709 5707 5706 5705 5704 5704 5703 5702 5702 5701 5701 5701 5701 5701 5701 5702 5702 5702 5703 5703 5704 5705 5705 5707 5708 5710 5712 5715 5717 5719
5739 5736 5732 5729 5725 5722 5719 5716 5714 5711 5707 5704 5701 5700 5699 5697 5695 5694 5693 5692 5691 5691 5690 5690 5689 5689 5689 5689 5689 5689 5690 5690 5690 5690 5691 5692 5693 5694 5696 5698 5700 5702 5704 5706
5732 5728 5725 5721 5717 5714 5710 5707 5704 5701 5698 5695 5692 5688 5688 5686 5684 5683 5682 5681 5680 5679 5679 5678 5678 5677 5677 5677 5677 5677 5677 5677 5677 5678 5678 5679 5680 5681 5682 5684 5686 5688 5690 5693
5725 5721 5717 5713 5709 5705 5702 5699 5696 5692 5688 5685 5682 5679 5678 5675 5674 5672 5670 5669 5668 5667 5667 5666 5665 5665 5664 5664 5664 5664 5664 5664 5664 5665 5665 5665 5666 5667 5668 5670 5672 5674 5676 5678
5718 5714 5710 5706 5701 5698 5693 5690 5687 5683 5679 5676 5674 5670 5666 5665 5663 5661 5659 5657 5656 5655 5654 5654 5653 5652 5652 5651 5651 5651 5651 5651 5651 5651 5651 5652 5652 5653 5654 5655 5657 5659 5661 5664
5711 5707 5702 5698 5694 5690 5686 5682 5678 5673 5670 5667 5664 5660 5657 5654 5652 5650 5648 5646 5644 5643 5642 5641 5640 5639 5639 5638 5638 5638 5637 5637 5638 5638 5638 5638 5638 5639 5640 5641 5642 5644 5646 5648
5703 5699 5695 5690 5687 5682 5678 5674 5671 5666 5661 5658 5654 5650 5648 5645 5642 5639 5637 5634 5632 5630 5629 5628 5627 5626 5625 5625 5625 5624 5624 5624 5624 5624 5624 5624 5624 5625 5625 5626 5627 5628 5630 5632
5695 5692 5688 5683 5678 5674 5670 5666 5662 5657 5652 5648 5645 5641 5638 5635 5631 5628 5625 5623 5620 5618 5617 5615 5614 5613 5612 5612 5611 5611 5611 5611 5611 5610 5610 5610 5610 5611 5611 5611 5612 5613 5615 5617
5688 5684 5680 5675 5671 5667 5663 5658 5653 5648 5643 5638 5636 5632 5629 5625 5621 5618 5615 5611 5609 5606 5604 5603 5601 5600 5599 5599 5598 5598 5598 5598 5597 5597 5597 5597 5597 5597 5597 5597 5597 5598 5600 5601
5680 5676 5672 5668 5663 5659 5655 5650 5645 5640 5635 5630 5626 5625 5620 5615 5611 5608 5604 5600 5597 5595 5592 5591 5589 5588 5587 5586 5585 5584 5584 5584 5584 5583 5583 5583 5583 5583 5583 5583 5584 5585 5585 5587
5672 5668 5664 5660 5656 5651 5646 5641 5637 5633 5627 5622 5617 5617 5610 5605 5600 5597 5593 5590 5586 5583 5580 5578 5577 5575 5574 5573 5572 5571 5571 5570 5570 5570 5570 5570 5570 5570 5570 5570 5570 5571 5572 5573
5664 5660 5655 5651 5649 5643 5638 5633 5628 5624 5619 5614 5609 5608 5600 5595 5590 5587 5583 5579 5576 5572 5569 5566 5564 5563 5562 5561 5560 5559 5558 5557 5557 5557 5557 5557 5557 5557 5557 5558 5558 5558 5559 5559
5655 5652 5648 5644 5639 5633 5629 5625 5620 5615 5609 5605 5601 5596 5591 5585 5581 5577 5573 5569 5565 5562 5558 5555 5553 5551 5550 5548 5547 5547 5546 5545 5544 5544 5544 5544 5544 5544 5545 5545 5545 5545 5546 5546
5647 5643 5639 5635 5630 5625 5620 5616 5611 5606 5601 5596 5592 5587 5582 5576 5571 5567 5563 5559 5555 5551 5548 5545 5542 5540 5538 5537 5535 5534 5533 5532 5532 5531 5531 5531 5532 5532 5532 5532 5533 5533 5533 5534
5638 5634 5630 5626 5621 5615 5611 5608 5602 5597 5592 5587 5581 5577 5572 5567 5562 5557 5553 5549 5545 5541 5537 5534 5531 5529 5527 5526 5524 5523 5522 5520 5520 5519 5519 5519 5520 5520 5520 5521 5521 5522 5523 5523
5629 5624 5620 5616 5611 5606 5603 5599 5593 5588 5583 5578 5572 5568 5562 5557 5552 5547 5543 5539 5535 5531 5527 5524 5521 5519 5517 5515 5513 5512 5511 5509 5508 5508 5508 5508 5508 5508 5509 5510 5510 5511 5512 5513
5620 5615 5609 5605 5602 5597 5596 5588 5583 5578 5573 5568 5563 5558 5552 5547 5542 5538 5533 5529 5525 5521 5518 5515 5512 5509 5507 5505 5504 5502 5500 5499 5498 5498 5497 5497 5497 5497 5498 5499 5500 5501 5502 5503
5610 5605 5600 5595 5590 5587 5584 5579 5573 5568 5564 5559 5554 5548 5543 5538 5533 5528 5524 5520 5516 5512 5509 5506 5503 5500 5498 5496 5494 5492 5491 5489 5489 5488 5487 5487 5487 5487 5488 5489 5489 5490 5491 5493
5601 5596 5592 5586 5581 5577 5575 5570 5563 5560 5555 5550 5545 5539 5534 5529 5525 5521 5515 5511 5507 5503 5500 5497 5494 5491 5489 5486 5484 5483 5481 5480 5479 5478 5478 5478 5477 5477 5478 5478 5479 5480 5481 5483
5592 5587 5583 5577 5572 5568 5565 5559 5555 5552 5548 5541 5535 5530 5525 5520 5516 5512 5506 5502 5498 5494 5491 5488 5485 5482 5480 5477 5475 5473 5472 5471 5470 5469 5469 5468 5468 5468 5468 5469 5470 5471 5472 5474
5582 5577 5573 5568 5564 5562 5555 5550 5546 5542 5536 5531 5526 5521 5516 5512 5507 5502 5498 5493 5489 5485 5482 5479 5476 5473 5470 5468 5466 5464 5463 5462 5461 5460 5459 5459 5459 5459 5459 5460 5461 5462 5463 5465
5573 5569 5564 5561 5558 5552 5546 5541 5537 5532 5527 5522 5517 5513 5508 5503 5499 5494 5490 5486 5481 5477 5474 5470 5467 5464 5461 5458 5456 5455 5453 5453 5452 5451 5451 5450 5450 5450 5450 5451 5452 5453 5454 5456
5564 5559 5555 5551 5547 5543 5537 5532 5528 5523 5518 5513 5509 5504 5499 5495 5490 5486 5482 5478 5474 5469 5466 5462 5459 5456 5452 5449 5447 5446 5445 5444 5443 5442 5442 5442 5441 5441 5441 5442 5443 5445 5446 5448
5554 5549 5545 5542 5538 5533 5529 5524 5519 5514 5509 5504 5500 5495 5491 5487 5482 5478 5474 5470 5466 5462 5458 5454 5451 5447 5444 5442 5439 5437 5436 5436 5435 5434 5434 5433 5433 5433 5433 5434 5435 5436 5438 5439
5545 5541 5537 5533 5528 5524 5520 5515 5510 5505 5500 5496 5491 5487 5482 5478 5474 5470 5466 5462 5458 5454 5450 5446 5442 5439 5436 5434 5432 5430 5428 5427 5427 5426 5426 5425 5425 5425 5425 5426 5427 5428 5429 5431
Wind_Speed
25 26 26 26 28 29 31 32 33 33 33 34 34 35 35 36 37 37 37 37 38 39 39 40 41 41 42 42 42 42 42 43 45 45 45 45 46 46 47 47 47 47 47 47
26 26 27 28 29 31 32 33 34 34 35 35 36 36 35 36 37 37 37 38 38 39 40 41 41 42 42 42 42 43 43 43 44 45 45 46 46 48 49 49 49 49 49 48
27 27 28 29 30 32 32 33 34 35 36 37 38 38 37 36 37 37 38 38 38 39 40 41 42 43 43 43 43 44 44 44 44 44 45 47 47 48 49 50 51 51 51 51
28 28 28 29 30 31 32 33 33 35 36 37 37 39 37 37 38 38 39 39 39 40 41 41 42 43 44 44 44 44 44 44 44 45 45 46 47 48 49 51 52 52 53 54
29 28 29 29 30 31 32 33 34 35 35 36 36 38 38 37 38 39 39 39 40 40 40 41 42 43 44 44 45 44 44 44 45 45 45 45 46 47 49 51 52 53 54 55
29 30 30 30 30 31 32 33 34 35 35 36 35 37 38 37 37 38 39 39 40 41 41 41 42 43 43 44 45 45 45 45 45 46 46 46 46 47 48 50 52 54 55 56
30 30 30 30 31 32 32 33 34 35 35 36 37 37 38 37 36 36 37 38 39 41 41 42 42 42 42 43 44 45 46 46 46 46 47 47 47 48 49 50 52 53 55 57
31 31 31 31 31 32 33 33 33 34 36 37 37 37 37 36 36 36 36 37 39 40 41 41 42 42 43 43 44 44 45 45 45 46 46 47 48 48 49 50 51 53 55 56
32 32 32 32 32 32 33 33 33 34 35 36 36 36 36 36 36 36 37 37 39 40 40 41 41 42 43 43 43 44 44 44 45 45 46 46 46 47 48 49 50 52 53 55
32 34 33 32 32 32 32 32 33 32 34 36 36 37 37 36 36 37 37 38 39 39 40 40 41 41 42 42 43 44 44 44 44 44 44 45 46 46 46 47 48 49 51 53
33 34 33 33 32 32 32 32 33 33 34 36 37 38 37 37 37 37 38 38 38 39 39 40 40 41 41 42 43 44 44 43 43 44 44 44 44 45 46 47 46 47 47 49
33 34 34 33 33 33 33 33 33 34 35 36 38 39 37 37 37 37 37 37 37 37 38 39 39 40 41 41 41 42 43 43 43 44 43 43 43 43 44 44 44 45 45 46
34 34 35 35 35 35 35 34 34 35 36 36 37 38 38 38 38 38 37 37 37 37 37 38 39 39 40 40 41 41 42 42 43 43 43 43 43 43 43 43 43 43 44 44
34 34 35 35 36 36 36 35 35 36 36 37 37 38 37 37 37 37 37 37 37 38 37 38 38 39 39 39 40 40 41 42 42 43 42 42 42 42 42 43 42 42 42 42
35 35 36 36 36 36 36 36 36 36 37 38 38 37 36 36 37 37 37 37 37 38 38 37 37 38 38 38 38 39 39 41 41 41 41 41 40 41 41 42 41 40 40 40
36 36 37 37 37 37 37 36 36 37 37 38 38 37 37 37 37 36 37 37 37 37 37 37 36 36 37 36 36 37 38 38 39 39 40 40 40 39 39 40 39 39 38 39
36 37 37 37 37 38 37 37 36 37 37 37 37 37 38 37 37 36 36 37 37 36 36 35 35 35 35 35 34 34 34 35 36 36 37 37 38 38 38 38 38 37 37 37
37 37 38 38 38 38 37 36 36 37 37 36 36 36 37 37 37 36 36 36 35 34 34 34 33 32 33 33 33 33 33 33 33 34 35 35 35 35 36 36 37 37 37 37
37 37 38 38 38 38 36 36 36 37 36 36 36 36 36 36 36 36 35 35 34 34 33 33 32 31 31 32 32 32 32 31 31 31 32 33 33 34 34 34 35 35 36 35
37 37 37 37 37 37 36 36 36 37 36 36 36 35 36 36 35 33 33 34 33 33 33 32 31 31 30 30 30 31 31 31 31 30 31 32 32 32 32 33 33 34 34 34
37 37 37 36 36 36 35 35 36 36 36 36 35 36 35 34 33 32 32 32 33 32 32 32 31 31 31 30 30 30 30 30 30 31 30 30 31 31 31 31 32 32 32 32
37 37 36 36 36 35 35 36 36 36 36 36 36 35 34 33 32 31 31 31 31 31 31 31 31 31 31 31 30 29 29 29 30 30 30 30 30 30 30 30 31 30 30 30
35 35 35 35 35 35 35 36 36 36 36 36 35 34 33 32 31 31 30 30 30 31 31 30 30 30 31 30 30 29 28 28 28 28 28 28 29 29 29 29 29 29 30 29
35 35 35 34 34 35 35 36 37 37 36 35 35 34 33 32 31 31 30 30 30 31 30 30 30 29 30 30 30 29 27 26 26 26 26 27 27 27 28 28 29 29 29 29
34 34 34 34 34 34 35 35 35 35 34 34 33 33 32 32 31 31 31 30 30 30 30 30 31 30 30 29 28 28 28 27 26 26 25 25 26 26 25 26 28 29 28 28
33 33 33 33 33 33 33 34 34 33 33 33 33 32 32 31 31 31 31 30 30 29 30 30 30 29 28 28 27 27 27 27 27 26 26 25 25 25 25 25 26 28 28 28
Wind_Direction
300 296 293 292 290 289 289 290 289 288 286 284 280 276 272 271 270 268 268 268 267 266 266 266 265 265 264 264 263 262 261 260 259 259 258 257 255 254 252 250 249 248 249 249
302 298 295 294 292 292 291 291 289 288 288 286 282 278 275 273 272 271 270 270 269 268 268 267 266 265 265 265 263 262 262 261 261 259 258 257 256 253 251 251 249 248 248 248
303 303 299 296 294 293 293 292 289 289 289 287 285 280 276 276 274 273 272 271 271 270 268 267 266 265 265 265 264 263 263 262 261 260 259 258 257 255 253 252 250 250 249 249
305 304 303 300 297 296 295 294 292 290 290 289 287 285 280 277 275 275 274 273 272 270 269 268 267 266 265 264 264 264 263 263 262 261 260 258 257 256 254 253 251 250 250 249
307 306 305 304 303 300 297 296 295 293 291 290 289 287 284 280 278 277 276 275 273 272 271 269 268 267 266 264 263 263 263 262 262 262 261 259 258 257 256 254 253 251 251 251
308 307 307 306 305 303 300 299 297 294 292 290 291 290 288 286 283 280 278 276 274 273 272 271 270 269 267 265 264 263 262 262 262 262 262 261 260 259 258 256 255 253 252 252
309 309 308 307 306 304 304 303 302 299 296 294 295 293 290 289 286 283 281 278 276 275 273 272 271 269 268 266 265 263 263 263 263 263 263 263 261 260 259 258 256 255 254 252
310 310 310 309 308 306 306 305 303 301 299 298 297 295 292 289 288 286 284 282 280 278 275 273 272 270 269 267 266 265 264 263 263 263 263 263 263 261 261 260 258 257 255 253
310 310 310 309 308 307 307 307 305 302 300 299 299 298 295 292 290 289 287 284 282 279 277 274 273 271 270 268 266 265 264 264 264 265 264 263 263 263 262 261 259 257 255 254
308 309 309 308 308 307 306 307 306 305 303 302 301 300 299 297 294 291 289 287 285 282 279 276 274 272 271 268 267 266 265 265 265 265 265 264 263 263 262 261 259 258 256 254
308 309 310 309 309 308 307 307 305 303 302 301 301 301 301 298 295 293 291 290 288 284 280 277 275 273 271 270 268 267 266 265 266 265 264 264 264 263 262 262 261 259 257 256
309 309 309 310 309 308 306 306 305 304 304 303 301 301 302 298 296 294 292 290 289 287 283 280 277 275 273 272 270 268 267 266 265 265 264 264 263 263 262 262 262 260 258 257
309 308 308 309 309 309 307 306 305 305 304 303 303 302 301 298 296 294 293 292 290 289 286 283 280 277 276 274 272 269 268 267 266 265 264 264 262 262 262 261 261 260 259 258
309 307 307 307 308 307 307 306 306 304 304 303 303 302 301 297 295 294 293 292 291 289 287 285 283 279 277 276 273 271 269 268 267 266 265 263 262 261 262 262 261 260 259 258
308 307 306 304 305 305 305 305 305 303 303 302 303 302 301 298 296 294 294 293 292 290 288 285 284 282 279 277 275 273 271 270 268 266 264 263 262 262 262 261 260 259 257 256
306 306 306 305 304 303 304 304 303 303 303 303 302 301 300 299 297 295 294 293 292 291 289 286 285 283 279 278 277 275 273 271 268 265 264 263 262 261 261 260 258 257 256 257
305 306 306 305 304 303 303 305 305 304 305 305 304 303 301 299 297 296 295 294 293 291 289 287 285 284 281 278 278 276 274 272 268 266 264 264 263 261 260 259 258 256 255 256
304 304 305 305 305 304 305 305 305 305 306 306 306 305 302 300 299 297 296 296 295 292 291 289 287 285 282 280 277 276 274 273 270 267 265 264 264 262 260 259 257 257 255 255
305 305 305 306 306 306 305 305 305 306 307 307 307 306 303 302 300 299 297 296 295 293 291 289 288 285 284 281 279 276 273 272 270 268 266 266 265 263 260 258 257 256 255 254
304 305 305 306 306 307 307 306 306 307 307 308 307 306 305 304 302 301 298 297 297 295 293 290 287 285 284 283 280 277 273 271 270 268 267 266 266 264 261 258 257 256 255 253
304 304 305 306 306 306 307 307 307 308 309 309 307 307 306 306 305 304 301 299 298 296 294 293 289 285 282 283 281 277 274 271 269 268 268 267 266 264 261 258 258 257 254 252
304 304 304 304 305 307 307 306 307 308 308 308 308 308 308 308 307 305 304 302 300 297 295 293 291 289 286 283 282 277 275 272 270 268 268 267 265 263 260 258 257 256 254 253
304 303 302 303 304 304 305 305 306 306 307 307 308 308 309 308 307 306 305 304 302 300 296 294 292 291 289 286 282 280 277 274 272 270 268 267 265 264 260 257 255 254 253 253
304 302 301 301 302 303 304 304 305 305 306 306 307 308 308 307 307 306 306 304 302 301 299 295 293 292 290 287 284 281 276 274 274 273 269 266 265 263 261 257 253 253 252 251
303 303 302 302 303 303 303 304 305 306 306 306 306 306 307 306 306 306 305 304 303 302 300 298 295 293 291 288 285 282 277 274 274 273 270 267 263 262 261 258 253 251 250 249
303 303 304 304 304 303 304 305 306 306 306 306 306 305 306 306 305 305 305 304 304 303 301 300 297 294 292 290 287 284 279 277 275 273 270 267 265 262 259 257 254 252 251 249